Weather History for Milton, FL

Change the Weather History Date:

Sunday, May 25, 2014

  Actual Average (KNSE) Record (KNSE)
Temperature  
Mean Temperature 80 °F -  
Max Temperature 95 °F 83 °F 97 °F (2012)
Min Temperature 66 °F 64 °F 57 °F (2013)
Cooling Degree Days 16    
Growing Degree Days 30 (Base 50)    
Moisture  
Dew Point 67 °F    
Average Humidity 69    
Maximum Humidity 90    
Minimum Humidity 38    
Precipitation  
Precipitation 0.00 in - - ()
Sea Level Pressure  
Sea Level Pressure 30.04 in    
Wind  
Wind Speed 3 mph (ESE)    
Max Wind Speed 12 mph    
Max Gust Speed -    
Visibility 8 miles    
Events Thunderstorm    
Averages and records for this station are not official NWS values.
T = Trace of Precipitation, MM = Missing Value Source: NWS Daily Summary

Daily Weather History Graph

Daily Weather History Graph

Search for Another Location

Airport:

Trip Planner

Search our weather history database for the weather conditions in past years. The results will help you decide how hot, cold, wet, or windy it might be!

Date:

Astronomy

May. 25, 2014 Rise Set
Actual Time 5:48 AM CDT 7:42 PM CDT
Civil Twilight 5:21 AM CDT 8:09 PM CDT
Nautical Twilight 4:48 AM CDT 8:41 PM CDT
Astronomical Twilight 4:13 AM CDT 9:16 PM CDT
Moon 3:38 AM CDT (5/25) 4:53 PM CDT (5/25)
Length of Visible Light 14h 48m
Length of Day
13h 54m
Waning Crescent, 10% of the Moon is Illuminated
May 25
Waning Crescent
May 28
New
Jun 5
First Quarter
Jun 12
Full
Jun 19
Last Quarter

Hourly Weather History & Observations

Time (CDT) Temp. Heat Index Dew Point Humidity Pressure Visibility Wind Dir Wind Speed Gust Speed Precip Events Conditions
12:56 AM 73.9 °F - 68.0 °F 82% 30.03 in 10.0 mi WNW 4.6 mph - N/A   Unknown
1:56 AM 73.0 °F - 68.0 °F 84% 30.02 in 10.0 mi WNW 3.5 mph - N/A   Clear
2:56 AM 72.0 °F - 68.0 °F 87% 30.01 in 7.0 mi Calm Calm - N/A   Clear
3:56 AM 70.0 °F - 66.9 °F 90% 30.01 in 4.0 mi Calm Calm - N/A   Clear
4:35 AM 69.1 °F - 66.0 °F 90% 30.06 in 2.0 mi Calm Calm - N/A   Clear
4:49 AM 70.0 °F - 66.0 °F 87% 30.06 in 3.0 mi Calm Calm - N/A   Clear
4:56 AM 70.0 °F - 66.0 °F 87% 30.02 in 3.0 mi Calm Calm - N/A   Clear
5:02 AM 70.0 °F - 66.0 °F 87% 30.06 in 1.8 mi Calm Calm - N/A   Clear
5:22 AM 66.9 °F - 64.0 °F 90% 30.07 in 2.5 mi WNW 3.5 mph - N/A   Clear
5:29 AM 69.1 °F - 64.9 °F 87% 30.06 in 3.0 mi Calm Calm - N/A   Clear
5:56 AM 70.0 °F - 66.9 °F 90% 30.03 in 3.0 mi Calm Calm - N/A   Clear
6:10 AM 69.1 °F - 66.0 °F 90% 30.07 in 1.8 mi Calm Calm - N/A   Clear
6:23 AM 68.0 °F - 64.0 °F 87% 30.08 in 3.0 mi Calm Calm - N/A   Clear
6:56 AM 73.0 °F - 69.1 °F 87% 30.04 in 6.0 mi NNW 4.6 mph - N/A   Clear
7:56 AM 79.0 °F - 70.0 °F 74% 30.05 in 10.0 mi NNW 4.6 mph - N/A   Clear
8:56 AM 82.9 °F 86.5 °F 69.1 °F 63% 30.06 in 10.0 mi NW 4.6 mph - N/A   Clear
9:56 AM 87.1 °F 90.6 °F 68.0 °F 53% 30.06 in 10.0 mi East 5.8 mph - N/A   Clear
10:56 AM 90.0 °F 92.4 °F 66.0 °F 45% 30.05 in 10.0 mi East 4.6 mph - N/A   Clear
11:56 AM 91.9 °F 94.5 °F 66.0 °F 42% 30.04 in 10.0 mi Variable 4.6 mph - N/A   Unknown
12:56 PM 93.0 °F 94.6 °F 64.0 °F 38% 30.02 in 10.0 mi North - - N/A   Clear
1:56 PM 95.0 °F 97.9 °F 66.0 °F 38% 30.01 in 10.0 mi South 10.4 mph - N/A   Clear
1:58 PM 95.0 °F 97.9 °F 66.0 °F 38% 30.06 in 10.0 mi South 11.5 mph - N/A Thunderstorm Thunderstorm
2:56 PM 93.0 °F 95.9 °F 66.0 °F 41% 30.02 in 10.0 mi SSE 11.5 mph - N/A Thunderstorm Thunderstorm
3:54 PM 89.6 °F 92.2 °F 66.2 °F 46% 30.06 in 10.0 mi East 8.1 mph - N/A   Clear
3:56 PM 88.0 °F 90.3 °F 66.0 °F 48% 30.01 in 10.0 mi East 8.1 mph - N/A   Clear
4:56 PM 84.0 °F 85.8 °F 64.9 °F 53% 30.01 in 10.0 mi East 9.2 mph - N/A   Scattered Clouds
5:56 PM 82.9 °F 84.6 °F 64.9 °F 54% 30.00 in 10.0 mi SSE 4.6 mph - N/A   Clear
6:56 PM 82.9 °F 85.4 °F 66.9 °F 58% 30.00 in 10.0 mi ESE 5.8 mph - N/A   Scattered Clouds
7:56 PM 79.0 °F - 66.9 °F 66% 30.02 in 10.0 mi SSE 5.8 mph - N/A   Scattered Clouds
8:56 PM 79.0 °F - 68.0 °F 69% 30.04 in 10.0 mi SSE 3.5 mph - N/A   Scattered Clouds
9:56 PM 73.9 °F - 66.9 °F 79% 30.06 in 10.0 mi SE 3.5 mph - N/A   Clear
10:56 PM 75.0 °F - 66.9 °F 76% 30.06 in 9.0 mi East 3.5 mph - N/A   Clear
11:56 PM 73.9 °F - 66.9 °F 79% 30.06 in 8.0 mi East 3.5 mph - N/A   Clear